Wetbulb
59.55 60.60 60.77 60.95 60.95 60.86 60.94 60.86 60.71 60.69 60.95 61.17 61.16 61.74 61.54 61.07 59.61 49.51 46.12 52.28 54.50 63.40 60.62 49.33 47.41 47.18 46.99 46.63 45.86 42.73 36.84 34.05 35.19 35.79 38.13 39.21 38.78 38.35 38.25 38.00 36.05 37.28 36.90 39.11 40.18
58.49 58.89 60.37 60.48 60.44 60.65 60.75 60.72 60.18 60.30 60.48 60.82 60.83 61.36 61.23 60.41 49.16 46.97 56.64 61.48 63.10 62.75 48.31 46.81 45.28 46.65 44.74 43.74 43.74 40.77 35.75 37.05 38.47 38.32 37.91 39.56 39.09 39.87 37.83 35.09 35.34 34.76 36.52 38.27 38.07
57.39 57.71 58.63 59.91 59.90 60.65 61.00 60.77 59.85 59.78 60.21 60.27 60.48 60.73 60.23 57.19 47.04 45.37 60.60 62.65 62.14 60.64 49.22 46.84 46.13 45.35 42.20 42.50 40.82 38.40 35.44 38.70 40.10 40.66 40.91 39.42 37.74 39.86 37.57 34.95 36.97 35.41 35.75 35.69 34.56
56.79 56.80 57.30 58.94 59.49 59.85 60.62 60.77 60.15 59.73 59.97 60.05 60.14 60.23 59.01 49.80 40.10 48.20 61.84 61.38 60.36 52.31 48.20 45.98 45.65 42.03 39.74 39.16 41.06 39.08 39.76 40.14 42.17 41.73 39.91 38.36 38.70 37.62 37.88 39.09 38.16 38.24 37.92 34.88 33.73
56.71 56.56 56.21 57.09 58.86 59.47 60.03 60.46 60.14 59.58 59.50 59.99 59.92 59.51 52.92 46.81 46.73 50.16 59.04 55.54 48.50 48.55 45.98 44.67 43.33 40.26 37.95 38.28 39.96 38.74 39.00 40.63 40.69 40.81 40.13 39.36 38.94 39.04 37.86 35.83 37.28 37.17 35.98 34.86 33.27
56.83 57.20 56.67 56.57 58.39 59.15 59.66 59.92 59.79 59.31 59.22 60.09 59.78 58.17 49.46 42.55 49.80 51.12 48.50 47.88 47.05 46.95 44.62 45.09 42.58 42.49 40.66 39.70 38.83 38.01 39.46 39.76 40.24 40.19 39.46 38.16 36.51 37.27 36.61 34.49 34.34 35.59 34.43 33.82 33.37
57.01 57.50 57.43 57.53 57.95 58.68 59.03 59.29 59.41 58.75 59.24 59.66 59.95 53.46 45.85 46.07 48.87 49.75 49.26 45.80 45.80 45.75 44.73 44.03 44.52 42.36 40.87 37.93 40.22 38.18 37.12 38.75 37.21 38.58 38.70 37.77 36.26 36.31 36.15 34.50 33.42 33.40 32.72 33.00 32.97
56.67 57.10 57.36 57.64 57.77 58.15 58.71 59.06 58.51 58.42 59.22 59.32 59.36 50.24 44.49 49.13 48.99 49.76 47.65 46.62 46.75 46.26 45.94 45.23 44.79 43.68 40.35 40.00 38.56 35.82 35.05 33.50 36.84 38.25 37.52 36.63 33.35 39.12 35.27 33.92 32.57 31.79 30.50 32.66 33.03
56.21 56.60 57.46 57.91 57.58 57.60 58.28 58.13 57.72 58.50 59.21 59.04 50.81 47.16 43.29 52.92 47.81 49.07 46.28 45.38 45.10 44.87 44.56 48.17 44.57 39.66 39.24 36.04 33.90 33.12 30.93 30.62 34.91 37.56 36.12 35.60 33.95 37.50 34.82 33.80 32.83 32.01 31.31 32.44 31.98
55.99 56.08 57.42 57.82 57.48 57.61 57.78 57.42 56.46 55.52 53.76 52.05 49.78 45.18 44.78 44.56 47.92 48.17 45.76 45.40 43.62 43.28 44.07 43.30 39.82 37.32 35.14 34.87 30.06 31.01 29.05 29.81 30.33 34.17 34.39 33.74 34.65 39.03 35.46 33.47 34.14 33.61 32.32 31.92 32.59
56.07 55.88 57.24 57.71 57.79 58.08 53.61 45.20 44.34 41.57 43.99 43.27 41.99 42.42 44.21 47.80 48.01 45.84 45.22 44.40 43.37 40.96 39.29 38.98 37.05 34.62 36.83 36.53 35.84 32.85 30.35 29.82 31.08 34.29 32.73 33.42 34.10 38.13 38.56 33.81 32.69 32.41 31.21 31.70 32.81
55.38 55.58 56.96 57.62 57.68 57.26 44.99 41.85 41.30 41.48 38.86 41.95 42.59 42.91 45.80 46.02 42.43 44.58 44.85 41.19 39.65 36.83 38.08 36.98 35.20 38.49 38.04 36.25 34.07 31.19 29.57 29.84 32.49 32.30 32.97 32.52 32.44 35.47 38.58 38.10 35.34 35.98 32.99 32.58 32.67
54.72 54.97 56.43 57.33 56.59 47.02 42.93 42.13 47.89 44.77 37.31 39.74 43.59 43.36 44.03 46.64 42.37 42.50 43.61 39.87 37.36 35.54 36.25 34.96 36.41 38.50 37.18 33.47 32.83 30.76 29.32 29.25 30.80 30.25 30.39 28.53 28.98 29.64 34.87 34.63 35.25 36.22 37.04 34.52 33.41
54.91 54.59 55.58 55.97 47.62 41.36 43.30 46.19 47.36 44.50 29.98 34.79 39.26 42.50 44.71 43.10 39.93 43.15 42.45 40.12 37.17 36.40 36.47 36.63 37.06 36.72 33.43 34.19 33.93 29.43 32.12 30.32 29.38 27.17 24.25 28.44 26.49 27.43 33.15 35.01 33.30 32.56 32.39 33.36 33.41
54.75 54.33 55.94 53.01 46.82 41.71 44.68 47.66 45.35 39.68 20.77 35.89 39.55 44.78 42.33 39.89 38.99 39.42 41.34 39.51 36.32 37.15 36.56 35.81 34.09 33.20 33.12 34.32 34.18 32.50 30.73 28.34 27.33 25.03 21.29 23.15 21.66 26.08 26.95 31.01 36.42 37.40 31.67 32.63 33.04
54.81 54.40 55.36 49.62 45.58 43.64 46.95 44.11 41.08 30.70 23.27 33.16 39.75 38.90 38.01 38.28 38.15 39.35 38.38 40.00 37.40 36.42 34.61 35.21 34.34 34.23 34.73 32.77 32.41 32.62 29.28 27.12 23.49 22.04 18.15 25.94 25.40 22.93 26.07 30.58 32.23 32.05 30.58 30.22 29.88
54.87 54.30 53.28 48.94 45.32 45.92 45.64 40.29 29.79 23.09 33.33 32.61 35.95 36.88 35.51 35.93 36.81 37.60 35.76 33.85 33.40 30.61 30.61 32.78 32.13 32.65 34.09 31.56 31.49 29.90 28.43 23.67 20.10 17.13 22.46 22.13 20.13 30.84 31.63 32.81 33.78 33.83 31.19 28.26 27.41
54.86 54.21 53.34 49.66 46.61 45.97 39.64 35.29 23.64 29.01 30.79 36.07 36.81 35.74 34.58 36.15 34.99 35.14 32.64 32.05 34.58 33.06 29.46 29.61 31.23 31.96 33.58 33.72 31.57 27.98 29.56 24.29 15.05 15.98 26.46 20.59 20.88 28.77 31.69 35.06 29.65 27.74 28.43 27.90 25.83
54.77 49.98 50.74 49.29 47.79 43.96 35.37 25.80 27.86 31.39 33.60 35.64 35.16 32.78 32.67 34.88 34.96 33.30 31.93 31.76 35.08 36.45 34.31 29.24 29.22 28.75 30.37 29.82 30.60 27.37 25.92 28.16 24.09 8.30 12.93 24.53 25.06 29.59 31.40 30.59 28.46 26.32 27.77 26.68 25.54
51.24 49.95 48.86 50.37 48.47 45.57 33.80 32.20 30.90 36.22 36.15 36.78 32.74 34.48 30.20 33.05 32.33 32.67 32.30 33.78 35.80 37.14 37.05 34.80 30.95 27.21 26.99 28.25 26.49 26.71 28.77 24.00 22.62 15.54 10.63 23.19 23.88 28.63 32.53 32.96 31.34 26.19 26.08 26.44 24.74
50.29 44.76 45.64 49.36 47.60 43.31 34.15 31.97 32.73 37.77 38.83 36.78 32.98 31.23 32.81 33.07 33.72 31.31 33.35 34.93 36.69 34.70 36.69 34.57 33.63 29.30 27.05 25.81 25.44 24.02 24.04 23.71 25.03 22.21 16.96 14.22 26.39 29.48 32.25 33.13 32.28 28.98 27.89 26.17 25.15
48.50 40.01 43.99 49.97 41.16 39.13 34.58 32.97 37.65 35.01 37.40 37.12 35.33 34.68 34.02 34.20 32.53 31.04 31.86 38.04 38.48 35.60 33.48 34.36 32.10 29.12 29.73 23.10 24.95 25.65 27.28 27.90 23.96 20.32 16.09 17.75 26.72 30.24 32.02 31.71 30.81 28.17 28.44 25.84 26.15
44.79 43.66 45.85 47.53 33.86 34.87 32.20 33.00 36.10 33.48 35.87 35.76 33.77 36.01 36.04 33.11 31.65 33.26 36.71 37.27 36.38 36.28 33.22 33.41 29.72 23.93 25.63 24.13 23.78 23.69 26.35 27.10 25.58 24.32 20.64 18.20 27.10 30.55 30.18 29.83 27.99 27.44 26.81 25.32 24.47
43.87 37.38 41.15 42.72 41.72 36.50 33.86 33.22 32.96 36.35 36.74 34.71 33.88 35.85 32.49 33.14 37.18 34.24 31.58 34.25 35.14 36.35 39.40 39.63 31.17 28.86 28.10 28.58 26.40 22.97 24.69 26.57 29.02 26.14 26.74 26.48 29.84 35.05 36.19 36.89 38.76 34.39 26.19 25.50 24.95
44.72 39.79 40.82 34.57 37.24 37.69 35.64 32.87 33.28 32.01 35.28 36.61 33.62 34.66 34.39 31.62 33.08 32.62 35.14 32.27 31.52 34.75 33.21 34.52 30.63 30.59 33.22 34.67 26.03 26.92 28.26 27.07 24.30 28.15 25.96 30.36 30.45 34.08 37.03 38.12 39.30 38.33 31.95 25.36 24.10
45.90 41.95 40.65 39.15 39.38 38.14 37.45 35.08 33.82 33.61 32.97 31.89 32.80 32.98 35.18 32.43 33.87 32.12 34.10 33.54 34.17 26.57 28.73 28.67 28.92 30.25 28.95 32.15 28.56 28.17 31.10 31.68 27.16 29.14 28.60 29.98 30.07 38.58 40.38 40.88 39.35 38.74 36.90 27.32 24.69
50.68 48.26 43.68 39.84 37.95 36.16 36.44 36.35 36.55 37.97 37.88 37.76 36.93 35.36 34.08 34.73 38.25 39.49 38.35 35.24 35.27 33.31 26.19 23.68 25.16 20.22 25.29 28.31 25.94 23.13 28.80 32.03 33.39 34.31 32.08 26.43 32.26 37.69 36.89 37.09 37.22 37.20 30.59 28.31 26.41
MSLP
1019.65 1019.12 1018.65 1018.22 1017.87 1017.52 1017.12 1016.60 1016.09 1015.70 1015.41 1015.10 1014.71 1014.53 1014.21 1013.92 1013.55 1013.61 1014.03 1014.05 1013.95 1013.63 1013.58 1013.56 1013.38 1013.44 1013.55 1014.41 1015.02 1015.53 1016.39 1017.01 1016.59 1016.65 1015.89 1015.93 1016.50 1017.37 1017.93 1018.74 1019.51 1019.91 1020.32 1020.28 1020.88
1019.98 1019.58 1018.99 1018.49 1018.05 1017.61 1017.19 1016.72 1016.27 1015.80 1015.34 1015.03 1014.76 1014.42 1014.23 1014.05 1013.78 1013.77 1013.86 1013.80 1013.62 1013.56 1013.51 1013.56 1013.64 1013.57 1014.10 1014.61 1015.30 1015.81 1016.45 1016.18 1015.88 1015.89 1015.71 1015.87 1016.38 1017.21 1018.28 1019.11 1019.77 1020.22 1020.49 1020.70 1021.25
1020.23 1019.81 1019.35 1018.79 1018.25 1017.70 1017.24 1016.78 1016.35 1015.85 1015.33 1015.01 1014.74 1014.39 1014.18 1014.11 1014.02 1013.59 1013.54 1013.60 1013.56 1013.49 1013.59 1013.61 1013.70 1013.81 1014.31 1014.66 1015.46 1015.81 1015.98 1015.87 1015.69 1015.64 1015.67 1015.94 1016.40 1017.07 1018.05 1019.03 1018.77 1019.21 1020.41 1021.15 1021.66
1020.40 1020.05 1019.54 1018.99 1018.43 1017.81 1017.24 1016.74 1016.38 1015.90 1015.33 1014.91 1014.68 1014.36 1014.13 1014.15 1014.29 1013.57 1013.46 1013.43 1013.44 1013.45 1013.48 1013.75 1013.89 1014.35 1015.07 1015.23 1015.49 1015.88 1015.74 1015.83 1015.78 1015.78 1015.97 1016.21 1016.43 1016.97 1017.52 1017.15 1017.81 1018.52 1019.75 1020.80 1021.42
1020.43 1020.10 1019.75 1019.13 1018.51 1017.90 1017.29 1016.67 1016.15 1015.77 1015.35 1014.81 1014.60 1014.33 1014.22 1014.26 1013.74 1013.48 1013.45 1013.33 1013.32 1013.41 1013.97 1014.07 1014.52 1014.99 1015.39 1015.52 1015.41 1015.83 1015.96 1015.87 1015.91 1016.04 1016.12 1016.38 1016.72 1017.10 1016.87 1017.39 1017.84 1018.71 1019.79 1020.54 1021.23
1020.36 1020.03 1019.69 1019.23 1018.62 1017.93 1017.21 1016.56 1016.03 1015.52 1015.06 1014.88 1014.51 1014.49 1014.35 1014.36 1013.45 1013.38 1013.39 1013.39 1013.59 1013.68 1014.16 1014.29 1014.70 1014.99 1015.51 1015.85 1015.87 1016.06 1016.04 1015.88 1015.94 1016.11 1016.26 1016.59 1016.98 1017.50 1016.82 1017.60 1018.41 1019.08 1019.87 1020.56 1021.09
1020.28 1019.90 1019.59 1019.12 1018.58 1017.91 1017.16 1016.36 1015.85 1015.24 1014.78 1014.62 1014.58 1014.77 1014.46 1013.80 1013.49 1013.55 1013.32 1013.69 1013.83 1013.90 1014.25 1014.58 1014.75 1014.97 1015.64 1016.06 1016.16 1016.21 1016.43 1015.90 1015.89 1016.08 1016.35 1016.62 1017.23 1016.89 1016.91 1017.91 1018.73 1019.26 1019.83 1020.32 1020.64
1020.27 1019.87 1019.49 1019.00 1018.44 1017.75 1016.93 1015.98 1015.51 1014.89 1014.55 1014.45 1014.34 1014.64 1014.38 1013.78 1013.72 1013.60 1013.75 1013.93 1013.92 1014.03 1014.33 1014.58 1014.68 1015.18 1015.70 1016.21 1016.46 1016.69 1016.93 1016.84 1016.04 1016.15 1016.28 1016.76 1016.41 1016.07 1016.68 1017.72 1018.65 1019.21 1019.72 1019.89 1020.24
1020.28 1019.88 1019.41 1018.95 1018.33 1017.63 1016.65 1015.51 1014.98 1014.53 1014.50 1014.54 1014.53 1014.41 1014.30 1013.74 1013.92 1013.92 1013.84 1014.10 1014.25 1014.47 1014.65 1014.71 1014.98 1016.00 1016.24 1016.80 1017.33 1017.61 1017.64 1017.51 1016.79 1016.19 1016.51 1016.88 1016.25 1015.92 1016.72 1017.68 1018.17 1018.61 1018.89 1019.23 1019.75
1020.18 1019.92 1019.38 1018.90 1018.32 1017.58 1016.46 1015.02 1014.50 1014.47 1014.58 1014.66 1014.65 1014.99 1014.00 1013.70 1013.83 1014.01 1014.13 1014.22 1014.49 1014.80 1014.97 1015.21 1015.95 1016.45 1017.05 1017.35 1017.62 1017.63 1017.87 1017.72 1017.45 1016.71 1016.80 1016.81 1015.98 1015.36 1016.22 1017.02 1017.04 1017.32 1017.98 1018.52 1018.88
1019.90 1019.68 1019.40 1018.88 1018.29 1017.61 1016.85 1015.41 1015.36 1015.45 1015.25 1014.71 1014.52 1014.30 1014.01 1013.94 1014.04 1014.15 1014.14 1014.34 1014.70 1015.07 1015.49 1015.85 1016.53 1016.36 1016.22 1016.47 1016.68 1017.15 1017.65 1017.95 1017.13 1016.78 1017.03 1016.26 1015.93 1015.06 1014.84 1015.72 1016.07 1016.09 1016.82 1017.34 1017.71
1019.93 1019.57 1019.24 1018.76 1018.30 1017.61 1017.47 1017.74 1018.53 1018.96 1017.12 1015.05 1014.69 1014.31 1014.05 1014.14 1014.35 1014.40 1014.35 1014.82 1015.13 1015.49 1015.88 1016.57 1016.06 1015.63 1015.93 1016.33 1016.90 1017.48 1017.96 1017.73 1017.23 1017.26 1017.58 1016.54 1015.44 1014.85 1013.97 1013.32 1013.80 1014.45 1015.12 1015.79 1017.10
1019.93 1019.67 1019.33 1018.77 1018.09 1017.87 1018.45 1018.81 1018.89 1018.92 1018.33 1015.33 1014.68 1014.45 1014.05 1014.06 1014.25 1014.20 1014.52 1014.83 1015.28 1015.91 1016.22 1016.34 1015.54 1015.52 1015.96 1016.59 1017.31 1017.67 1018.02 1017.75 1017.91 1017.85 1017.68 1017.20 1014.67 1014.02 1012.53 1012.12 1012.26 1012.64 1013.40 1014.73 1015.55
1019.91 1019.67 1019.29 1018.75 1018.41 1018.70 1018.78 1018.79 1018.73 1018.75 1018.36 1015.50 1014.69 1014.17 1014.32 1014.25 1014.37 1014.13 1014.22 1014.62 1015.32 1015.57 1016.35 1016.28 1015.38 1015.72 1016.16 1016.60 1017.14 1017.62 1016.96 1017.69 1018.26 1018.83 1019.00 1018.02 1014.55 1014.03 1012.72 1011.94 1011.63 1011.76 1012.82 1013.37 1014.41
1019.71 1019.51 1019.38 1019.09 1019.19 1018.98 1018.85 1018.75 1018.75 1018.46 1017.59 1014.80 1014.32 1014.14 1014.10 1014.57 1014.77 1014.70 1014.69 1014.62 1015.13 1015.60 1016.14 1014.88 1015.39 1015.96 1016.27 1016.16 1016.67 1016.98 1017.30 1018.02 1018.63 1019.49 1019.77 1018.62 1018.10 1013.33 1013.11 1012.62 1011.03 1010.36 1011.34 1012.43 1013.17
1019.29 1019.43 1019.28 1019.46 1019.42 1018.86 1018.66 1018.74 1018.88 1018.89 1016.65 1014.40 1014.01 1014.07 1014.38 1014.41 1014.56 1014.81 1014.85 1014.97 1015.33 1015.54 1015.75 1015.48 1015.47 1015.67 1015.66 1016.29 1016.77 1017.35 1017.95 1018.85 1019.84 1020.41 1019.73 1016.79 1016.70 1013.67 1012.71 1011.26 1010.78 1010.60 1011.34 1012.24 1013.22
1018.54 1019.02 1019.35 1019.19 1019.27 1018.99 1018.93 1019.03 1019.52 1017.80 1015.43 1014.15 1013.85 1014.12 1014.18 1014.49 1014.56 1014.66 1014.98 1015.31 1015.43 1015.90 1015.77 1015.46 1015.41 1015.48 1015.81 1016.85 1017.49 1017.82 1018.92 1020.23 1020.65 1021.05 1018.32 1016.94 1016.73 1011.43 1010.75 1009.69 1009.78 1010.42 1011.08 1011.92 1012.92
1018.23 1018.43 1018.85 1018.88 1018.90 1019.11 1019.30 1019.54 1018.30 1015.90 1014.88 1013.90 1014.07 1014.41 1014.48 1014.28 1014.50 1014.92 1015.34 1015.50 1015.02 1015.13 1015.72 1015.68 1015.06 1015.35 1015.69 1016.03 1016.76 1017.96 1018.59 1019.69 1020.11 1020.82 1017.97 1017.02 1013.89 1009.62 1008.79 1008.47 1009.19 1010.29 1011.04 1011.74 1012.70
1018.01 1018.54 1018.46 1018.65 1018.63 1019.14 1019.65 1018.87 1015.43 1015.27 1014.30 1013.89 1014.16 1014.38 1014.38 1014.17 1014.61 1015.03 1015.14 1014.69 1014.00 1014.17 1014.58 1014.95 1014.86 1015.33 1015.94 1016.22 1016.96 1018.29 1018.59 1018.39 1019.40 1021.01 1019.23 1014.28 1010.35 1009.13 1008.13 1008.24 1009.13 1009.83 1010.87 1011.49 1012.14
1017.57 1017.94 1017.27 1017.30 1018.42 1018.89 1019.26 1016.17 1014.67 1013.62 1013.09 1013.13 1013.38 1013.06 1013.54 1013.89 1014.52 1014.75 1014.28 1013.20 1013.19 1012.57 1012.42 1013.17 1014.72 1015.36 1016.42 1016.91 1017.55 1017.56 1017.75 1018.77 1019.54 1020.06 1018.28 1012.19 1009.32 1007.85 1007.68 1007.75 1008.33 1009.29 1010.27 1010.82 1011.62
1016.69 1017.23 1015.92 1016.20 1017.76 1018.57 1016.97 1015.42 1014.21 1013.14 1012.68 1012.87 1012.59 1012.53 1012.35 1012.70 1013.13 1013.35 1012.41 1012.05 1011.84 1012.27 1012.63 1013.35 1014.46 1015.50 1016.54 1016.37 1016.33 1017.83 1017.77 1018.15 1018.31 1018.12 1017.20 1014.27 1006.40 1005.28 1005.75 1006.53 1007.38 1008.03 1009.10 1009.86 1010.78
1015.58 1016.37 1015.86 1015.79 1016.99 1016.22 1014.68 1013.76 1013.15 1012.68 1012.84 1012.41 1011.90 1011.63 1011.80 1012.09 1012.03 1011.90 1011.53 1010.33 1010.11 1011.17 1012.70 1012.96 1013.79 1014.69 1014.52 1015.21 1015.77 1015.60 1015.32 1015.73 1016.76 1016.17 1015.87 1014.70 1004.08 1004.20 1004.42 1005.14 1006.36 1007.37 1008.12 1008.90 1009.72
1013.78 1014.73 1015.71 1015.23 1014.82 1014.29 1013.93 1013.39 1012.91 1012.47 1011.92 1011.63 1011.58 1011.14 1011.16 1011.44 1011.85 1010.65 1010.02 1009.63 1010.43 1010.76 1011.11 1012.14 1012.95 1013.99 1013.76 1015.05 1015.34 1014.95 1014.55 1014.12 1013.93 1013.83 1012.56 1012.86 1002.41 1002.95 1003.68 1004.33 1005.05 1006.19 1007.30 1008.12 1008.87
1012.69 1013.61 1014.58 1013.93 1012.48 1012.49 1013.29 1012.56 1012.26 1011.22 1011.21 1010.98 1010.91 1010.77 1010.84 1010.21 1009.72 1009.21 1009.33 1009.78 1010.20 1010.50 1010.54 1010.55 1011.27 1011.35 1010.98 1010.61 1011.47 1013.06 1012.44 1012.15 1012.37 1011.39 1009.53 1006.18 1004.28 999.08 1003.44 1003.28 1003.19 1004.55 1005.97 1006.63 1007.70
1010.91 1010.17 1010.79 1011.49 1011.12 1011.60 1011.92 1010.82 1010.49 1010.80 1010.33 1010.34 1010.13 1009.49 1009.73 1009.88 1009.14 1008.92 1009.02 1010.26 1010.68 1010.69 1011.07 1011.21 1010.78 1010.22 1009.48 1008.93 1010.71 1010.67 1009.66 1009.82 1010.14 1007.74 1007.49 1002.96 1003.73 998.07 1001.72 1001.60 1001.39 1002.89 1003.89 1005.46 1006.78
1008.55 1009.47 1009.59 1009.09 1009.58 1009.95 1009.98 1008.83 1009.04 1009.73 1010.15 1009.54 1008.88 1009.04 1008.89 1008.56 1008.03 1007.78 1008.78 1009.59 1010.05 1011.57 1011.64 1011.44 1010.48 1010.37 1009.74 1008.39 1009.49 1010.14 1005.86 1008.04 1006.63 1004.45 1005.26 1003.04 1000.70 996.84 1000.02 1000.41 1000.60 1001.49 1002.96 1004.08 1005.36
1007.45 1007.02 1007.17 1007.44 1008.07 1008.42 1007.65 1007.19 1007.22 1008.62 1008.02 1007.84 1007.90 1008.17 1007.72 1006.62 1007.54 1007.28 1008.38 1008.70 1008.96 1010.11 1010.97 1011.63 1011.10 1010.77 1009.21 1009.09 1009.83 1008.81 1003.08 1004.50 1003.95 1002.05 1002.86 1002.09 996.47 997.40 998.96 999.20 999.25 1000.50 1001.90 1002.78 1003.88
Wind_Speed
20 20 20 20 20 19 19 17 17 17 13 12 10 9 8 9 4 3 2 3 4 9 5 4 2 3 3 4 3 3 5 2 5 7 4 3 4 2 0 6 1 2 4 4 12
19 19 20 21 20 19 18 17 16 16 15 12 10 8 8 9 2 4 3 3 5 5 3 5 4 3 4 3 3 5 4 5 3 5 4 4 4 8 5 3 3 1 1 6 10
19 20 20 22 22 21 18 16 15 16 15 13 10 7 6 6 3 3 3 4 6 2 2 1 1 3 4 2 3 1 2 2 3 3 5 3 2 6 7 5 9 11 13 9 6
18 20 21 22 22 23 22 19 16 15 14 13 9 7 5 0 3 1 2 3 4 5 3 4 6 5 4 3 3 2 1 1 2 2 3 3 3 4 9 6 0 9 16 10 10
17 19 21 23 23 24 23 21 18 16 15 12 8 7 1 0 7 1 2 5 2 2 5 3 5 2 2 1 3 1 3 2 1 3 5 1 6 8 9 2 5 12 12 13 10
17 16 17 20 21 23 23 23 20 17 16 11 6 7 2 4 2 2 1 2 4 3 3 5 3 3 4 0 2 1 3 5 4 4 4 4 3 1 2 6 8 13 13 10 11
17 16 17 18 20 22 24 24 21 18 14 7 3 3 1 10 1 3 4 2 2 1 4 2 3 3 3 1 3 0 5 7 1 3 4 4 7 11 4 6 9 10 9 9 10
17 16 17 19 20 23 25 25 21 18 8 2 2 1 7 2 1 2 1 3 4 4 5 3 3 6 3 1 6 4 4 5 2 5 1 4 11 9 7 11 11 10 9 11 12
17 16 17 19 20 23 26 28 20 5 1 2 2 4 8 3 2 1 2 3 3 3 4 3 5 3 4 4 5 6 3 3 10 5 2 6 10 6 7 8 10 13 14 14 10
16 17 15 18 20 22 27 24 7 3 0 1 1 3 2 3 2 2 2 3 3 3 3 5 5 3 3 4 4 6 4 5 7 2 3 5 17 15 8 12 16 16 14 15 15
12 15 14 17 19 22 13 7 7 5 5 7 4 3 1 0 1 1 3 4 2 1 5 2 2 8 10 8 3 3 4 7 6 5 3 10 13 20 10 10 12 15 14 17 19
15 15 12 15 18 20 2 5 2 2 9 2 4 4 3 1 2 3 3 4 4 7 5 3 11 8 4 4 4 3 3 9 8 1 6 11 17 13 20 17 14 16 18 19 15
14 15 13 15 19 4 3 2 2 1 2 9 4 4 3 7 5 4 8 4 4 5 7 8 3 6 6 4 4 4 6 6 7 5 4 8 11 7 9 7 9 13 14 15 20
11 14 14 17 2 3 1 3 1 1 4 9 3 2 2 2 4 2 5 4 2 10 8 8 3 7 4 6 9 4 6 3 4 5 4 3 15 4 9 12 7 9 11 15 18
9 11 12 4 4 1 1 1 2 3 5 6 3 1 2 5 2 1 2 2 5 6 7 9 8 5 6 8 9 8 2 2 1 2 4 4 6 7 2 9 21 13 12 13 17
8 8 8 0 1 2 1 2 2 6 10 4 3 5 4 3 2 2 2 4 0 4 3 7 1 6 7 3 3 4 3 5 5 2 3 8 10 4 7 12 9 6 6 9 11
10 7 2 3 2 1 1 3 3 6 4 5 6 4 2 6 5 7 7 6 8 4 7 1 6 2 3 4 2 4 6 5 6 3 12 4 3 13 7 13 12 9 7 9 9
10 7 4 3 1 1 3 5 9 8 8 3 3 2 5 6 4 5 4 4 7 2 3 5 12 9 6 7 8 6 9 8 9 5 17 3 12 10 13 13 4 5 8 6 9
8 1 3 4 6 3 4 7 11 9 8 8 2 4 5 4 4 5 8 7 8 13 10 7 9 2 2 2 3 5 6 2 2 2 4 8 9 8 10 12 8 9 7 10 11
4 3 5 9 8 2 3 18 9 10 8 6 14 11 9 8 8 8 9 6 7 16 3 4 7 1 1 2 3 4 4 5 2 4 9 13 15 15 11 11 12 8 10 10 8
5 4 3 14 6 3 12 10 7 8 6 8 9 7 10 10 9 9 9 4 8 5 6 5 5 2 4 11 14 4 4 1 2 6 7 8 13 6 9 11 12 10 11 10 12
4 5 3 11 8 6 15 9 8 6 6 9 5 10 12 10 9 9 13 15 11 10 12 8 5 9 16 2 3 3 8 11 8 8 3 3 31 2 7 9 7 9 11 8 11
5 5 4 5 9 13 3 5 8 8 13 13 11 9 7 7 9 10 17 5 10 11 13 11 5 5 8 2 2 8 8 7 2 1 12 8 30 3 7 8 8 9 8 9 12
5 6 3 7 8 14 14 10 11 7 20 5 7 8 5 14 19 12 6 3 4 7 4 14 9 12 21 11 7 7 12 15 21 17 16 35 30 46 19 23 26 16 11 13 14
6 6 8 9 16 19 11 6 22 11 8 14 12 24 18 12 19 21 17 3 1 5 3 9 16 13 25 28 5 8 20 17 21 31 24 34 31 42 26 28 28 14 10 10 13
8 5 3 6 10 24 26 26 27 15 10 9 21 6 23 28 25 24 17 8 14 3 8 5 13 10 23 22 10 10 36 20 26 34 25 32 42 38 28 29 28 26 17 12 14
8 3 7 9 12 12 22 30 27 20 17 22 18 18 23 25 24 24 13 6 10 12 12 9 6 4 25 8 7 12 29 31 31 32 26 30 48 37 31 29 28 21 10 12 15
Wind_Direction
1 359 358 356 355 352 347 346 344 341 341 336 339 334 337 339 316 50 47 232 281 311 333 282 37 9 69 84 73 130 66 182 196 149 233 188 156 50 5 122 144 260 172 233 138
357 354 354 352 350 349 346 345 341 335 335 334 333 336 335 336 63 74 189 283 292 315 36 38 11 346 59 69 32 78 98 215 187 186 203 192 182 169 153 136 250 330 47 117 124
353 351 350 350 347 344 342 343 338 332 330 332 325 328 326 327 338 192 169 311 313 222 112 85 358 30 61 36 16 163 165 211 239 202 179 193 241 169 143 219 203 197 170 157 150
351 347 346 347 345 342 338 338 336 328 324 325 320 314 319 336 231 165 11 334 338 149 95 45 16 45 62 36 355 1 35 207 280 228 160 216 125 234 194 209 82 181 163 160 171
347 347 344 344 341 339 335 334 333 327 323 317 314 308 241 352 247 47 9 357 35 74 61 75 60 78 62 313 20 43 324 321 236 271 249 89 242 238 243 6 116 138 157 174 172
341 339 342 337 336 335 331 330 329 324 321 307 306 312 122 236 122 40 3 69 49 64 45 45 119 143 106 340 116 298 273 263 247 226 255 219 248 184 249 133 128 157 176 180 180
334 335 334 337 336 333 328 325 324 319 314 293 319 335 80 236 85 49 78 98 40 74 112 76 130 107 132 24 329 15 324 323 167 183 248 171 287 238 143 152 166 186 181 189 196
331 333 333 334 335 332 325 320 319 314 306 213 106 49 248 358 267 54 85 65 66 45 95 125 101 108 80 170 13 39 54 13 250 152 276 130 266 269 164 158 197 199 198 200 206
326 329 332 332 332 329 323 315 311 308 95 139 89 122 268 329 340 61 24 131 72 57 56 90 68 85 47 76 5 5 256 253 313 194 140 173 270 251 173 196 213 211 206 205 203
319 325 329 331 329 327 324 308 287 81 63 252 36 35 269 212 168 106 12 114 105 91 51 49 53 75 51 93 243 247 259 241 236 234 188 225 263 268 200 206 219 219 211 209 207
312 320 326 327 326 326 339 353 11 353 20 203 211 230 306 31 48 88 135 98 80 84 184 360 111 204 215 196 194 186 214 238 246 245 225 248 250 267 254 231 229 225 208 211 211
308 315 320 318 318 321 344 64 83 165 309 279 255 272 247 278 285 229 116 160 151 204 124 42 237 207 114 137 160 188 250 262 281 273 196 268 256 256 260 250 222 230 219 214 201
305 310 315 315 315 25 26 69 318 302 239 292 216 225 205 141 221 239 146 148 175 184 194 176 221 107 141 154 175 221 201 241 240 329 246 304 266 225 270 256 250 231 226 211 204
304 308 314 323 42 313 49 308 353 50 43 271 238 274 81 118 263 172 185 147 191 208 162 233 219 171 171 210 153 236 216 247 285 18 256 13 292 237 243 284 247 229 204 208 204
286 304 307 16 293 344 357 288 286 75 311 260 203 183 135 161 126 297 348 91 200 192 135 240 168 170 190 211 164 227 139 149 108 215 7 231 269 250 355 271 268 265 214 208 204
250 284 308 326 331 260 260 337 40 46 245 285 157 177 142 189 192 114 122 53 29 154 261 250 317 179 206 84 152 134 86 60 56 69 269 226 193 214 179 213 256 259 237 207 198
207 241 210 129 267 307 10 50 33 186 289 241 213 178 196 192 213 174 168 178 178 149 226 266 214 177 148 107 39 90 67 319 325 345 245 138 210 253 238 233 230 256 265 215 192
210 211 204 213 132 67 41 59 209 213 217 39 97 75 197 156 244 174 146 224 237 107 117 206 275 179 176 195 182 172 167 169 235 231 284 223 243 258 231 257 250 243 257 232 195
161 156 184 218 161 85 82 219 201 179 201 166 104 181 229 235 197 154 208 208 213 171 191 178 264 89 54 88 108 183 191 172 55 120 327 231 271 289 257 265 260 247 233 228 203
161 205 204 161 149 133 140 236 209 195 156 158 203 183 202 207 173 185 181 191 221 194 151 239 292 111 129 102 28 174 170 84 4 273 268 262 274 248 228 243 246 241 229 234 196
153 219 230 139 121 188 224 223 222 224 172 174 212 236 210 189 197 205 218 227 206 154 157 149 146 245 131 204 171 146 224 72 156 160 204 294 272 211 206 220 231 228 230 215 199
164 225 179 148 178 207 226 190 189 217 216 261 211 227 221 196 222 223 211 216 164 151 160 197 163 238 236 337 342 293 205 170 193 229 242 150 268 224 191 196 216 230 229 211 204
196 178 200 202 212 216 235 274 235 185 200 220 229 189 195 214 248 200 239 184 155 156 170 177 213 270 283 60 354 223 201 227 290 149 201 193 259 184 195 214 224 229 228 211 202
158 174 183 217 218 218 217 229 232 217 237 231 230 191 165 236 228 256 224 192 203 200 344 163 185 198 239 226 133 180 215 214 221 247 240 234 262 268 261 276 277 263 225 215 203
187 209 177 190 215 218 197 234 236 226 211 206 245 230 226 251 244 240 255 263 204 207 147 174 234 222 246 259 188 210 243 206 211 234 236 258 247 257 262 263 268 276 233 201 201
220 195 180 208 201 210 208 230 238 240 169 218 233 217 226 238 234 257 239 205 225 4 185 189 246 252 259 257 186 245 254 239 224 242 245 258 268 264 273 277 277 274 264 216 206
235 215 196 186 213 206 217 222 236 229 239 234 226 232 237 237 242 254 275 255 224 219 192 172 180 181 252 255 120 260 244 239 252 248 231 244 252 277 272 263 265 267 224 213 206